Wind_Speed
8 7 7 6 5 5 5 4 4 4 3 3 3 3 3 3 3 2 2 2 3 3 3 3 3 3 4 4 4 5 6 6 5 5 5 6 6 6 6 5 6 6 7
10 9 8 7 6 6 6 5 5 4 3 3 3 3 3 3 3 2 2 2 2 2 3 3 3 3 4 5 5 6 6 6 6 6 6 6 6 7 7 7 7 8 8
11 10 9 8 7 7 6 6 5 5 4 4 4 4 4 4 3 3 2 2 2 2 2 3 3 3 3 3 4 5 5 6 6 6 6 7 7 8 8 8 8 8 9
11 12 11 10 9 8 7 8 6 5 5 5 5 4 4 4 3 3 3 2 2 2 2 2 3 3 2 2 2 3 3 4 5 6 6 7 7 7 8 8 8 9 9
12 12 11 10 10 9 8 8 7 6 6 6 6 5 5 4 4 4 3 3 3 2 2 2 2 2 2 2 2 2 3 3 4 5 5 6 7 7 7 7 8 9 9
12 12 12 11 10 10 9 9 8 7 7 6 6 6 6 5 5 4 4 4 3 3 2 3 3 2 2 2 2 2 3 3 4 4 5 6 6 7 8 8 8 8 9
12 12 13 12 12 11 10 9 9 8 8 7 7 7 7 6 6 5 5 5 4 4 3 3 3 3 3 3 3 3 3 4 4 4 5 5 6 7 7 7 8 8 8
13 13 13 13 13 12 11 10 9 9 9 8 8 8 8 8 7 7 7 6 6 5 5 4 4 5 5 5 5 5 5 6 6 6 6 6 7 7 7 8 8 9 9
14 14 15 14 13 13 12 11 11 10 10 9 8 9 9 8 8 8 8 8 8 7 7 6 6 6 6 7 7 7 8 8 8 8 8 8 8 8 9 9 10 10 11
12 13 15 15 14 14 14 13 12 11 11 11 10 10 10 10 10 10 9 9 9 9 9 8 8 8 8 9 9 9 10 10 10 10 10 10 11 11 11 12 13 13 14
13 14 15 15 15 15 15 14 13 13 13 12 12 12 11 11 11 11 11 11 11 11 11 11 11 11 11 11 11 12 12 12 12 13 13 13 14 14 15 16 16 17 17
13 14 14 15 15 15 15 15 15 15 14 14 14 13 13 13 13 13 13 13 13 13 13 13 13 13 13 14 14 14 15 15 15 15 16 16 16 17 17 18 19 19 20
13 14 14 14 15 16 16 16 16 16 16 16 16 15 15 15 15 14 15 15 15 15 15 15 15 15 15 16 16 17 17 17 18 18 18 18 19 20 20 21 22 22 23
13 15 15 15 15 16 16 17 17 18 18 18 18 17 17 17 16 16 17 17 17 16 16 16 16 17 17 18 18 19 19 19 20 20 21 21 22 23 24 24 25 25 26
13 15 16 16 16 17 17 18 18 19 19 20 20 19 19 19 18 18 18 18 18 18 18 18 18 19 19 20 20 21 21 21 22 23 24 25 25 26 27 28 29 29 30
14 15 16 17 18 18 19 19 19 20 20 21 21 21 21 21 20 20 20 21 21 21 21 21 21 21 21 21 22 23 23 24 25 25 26 27 29 29 30 31 31 32 33
14 15 16 17 17 18 18 19 20 21 21 21 22 22 22 22 23 23 23 23 22 22 22 23 22 23 23 24 24 25 26 27 27 28 29 30 31 33 33 34 34 35 36
13 15 16 17 18 18 19 20 21 21 21 21 22 22 22 22 23 23 24 24 23 23 24 24 24 25 25 25 25 26 28 28 29 30 32 33 34 35 35 36 38 39 39
13 14 16 17 18 18 19 20 20 21 21 20 21 21 21 22 22 24 24 24 25 25 25 26 26 27 27 27 28 29 29 30 32 33 34 35 36 37 38 39 40 41 42
13 15 15 17 18 19 19 19 18 19 20 21 20 21 22 22 23 23 24 25 25 25 26 26 26 27 28 29 30 31 32 33 34 36 37 37 38 40 41 42 42 43 45
12 13 14 15 16 17 18 18 18 18 19 20 21 22 22 23 23 24 25 25 25 26 27 27 28 29 30 31 33 34 35 36 37 38 39 40 41 43 44 45 45 46 48
12 13 14 15 16 17 18 18 19 20 21 22 22 23 23 24 25 25 25 26 26 27 28 29 30 31 32 34 34 36 37 38 40 41 42 43 45 46 47 48 49 50 51
13 14 14 15 16 17 18 19 20 20 21 21 22 23 23 24 25 26 27 27 28 29 30 31 32 32 34 35 36 38 39 40 41 43 45 46 47 48 48 49 50 51 52
15 14 15 16 18 19 19 19 21 21 21 22 23 23 24 25 25 26 26 27 28 29 31 31 32 34 35 36 38 39 41 43 44 45 46 46 47 49 50 51 52 53 55
16 16 16 17 17 18 18 20 21 21 22 23 24 25 25 26 27 28 28 28 30 31 33 34 34 35 37 39 40 42 43 45 46 46 47 48 49 50 52 54 54 55 56
17 18 18 19 19 19 20 20 20 21 23 24 25 26 26 27 28 28 29 31 32 33 34 35 36 37 39 41 42 44 45 47 47 47 48 49 51 52 53 54 55 55 56
Wind_Direction
225 220 211 210 205 203 206 207 210 207 200 199 192 188 185 189 194 205 206 219 234 250 254 257 267 266 255 252 249 246 247 247 252 256 258 256 257 257 261 266 270 269 271
223 216 215 213 205 206 212 212 212 209 188 179 181 191 203 207 202 206 230 238 242 251 253 259 273 279 269 257 256 253 248 251 255 259 262 259 257 257 261 265 269 271 272
215 212 216 213 210 210 210 209 210 208 192 182 187 197 203 209 205 212 236 241 248 251 256 263 277 286 289 271 263 259 251 250 254 262 265 265 262 261 262 267 270 271 270
212 212 217 215 213 214 214 209 210 205 196 193 198 206 211 214 213 223 241 243 249 251 253 268 281 286 292 281 263 258 249 252 261 266 268 267 265 264 265 269 273 272 271
213 212 214 215 213 215 211 208 206 203 202 201 204 211 215 216 217 226 240 241 241 244 245 269 272 277 269 268 263 258 260 267 271 272 274 270 267 266 270 274 275 273 272
211 212 211 211 211 210 206 204 203 205 208 210 212 217 221 225 223 230 236 238 236 242 251 266 267 267 259 260 262 264 267 273 279 281 275 273 271 268 269 273 276 278 275
213 212 209 209 208 205 204 206 208 212 214 216 219 223 227 231 232 239 242 240 236 239 246 258 264 263 267 265 261 263 273 275 281 283 280 277 272 271 272 275 278 279 278
216 213 211 209 208 208 211 212 214 217 219 224 227 228 230 233 237 238 239 238 241 246 253 259 263 265 267 268 265 268 276 279 279 279 279 279 276 273 274 276 278 280 281
218 218 215 214 214 215 217 219 221 223 226 229 230 231 234 237 237 239 238 241 246 251 255 260 264 266 269 270 271 274 276 278 280 278 276 275 277 276 277 277 278 280 280
220 221 219 220 220 221 223 225 226 226 229 232 234 237 241 241 241 244 245 246 249 253 256 261 264 265 268 270 272 275 276 278 278 278 276 274 273 274 276 278 278 278 278
225 222 222 223 222 226 229 231 231 230 232 235 239 241 244 244 245 248 249 251 252 254 257 263 266 268 271 273 275 276 277 276 276 275 276 275 274 274 275 276 277 278 278
226 225 225 225 225 228 231 234 236 235 236 239 242 244 245 246 247 249 251 252 253 254 256 261 266 268 271 273 275 276 276 275 275 275 275 276 276 277 278 278 279 279 279
225 225 226 228 229 231 235 238 240 240 241 244 246 248 248 248 250 251 253 255 256 257 258 260 265 267 269 272 275 276 276 275 276 276 276 278 278 278 279 279 280 280 280
231 230 231 232 233 236 239 241 243 244 245 246 249 251 252 251 253 255 257 258 259 260 260 262 264 268 269 272 275 276 276 277 277 276 277 279 280 279 279 280 280 280 280
238 237 237 238 240 242 245 246 246 247 249 250 251 251 252 253 255 259 260 260 261 261 262 264 266 270 272 274 275 276 276 277 277 278 279 280 281 281 280 280 280 280 281
243 243 245 242 244 246 248 250 250 250 252 253 254 253 254 255 257 260 261 262 264 264 266 267 269 272 273 274 276 277 276 277 278 279 281 281 282 282 281 280 280 281 281
249 250 249 245 247 248 250 252 253 253 254 255 256 256 255 257 259 260 261 263 265 266 267 269 270 271 272 274 274 276 278 280 280 281 282 283 284 283 282 281 281 280 280
253 252 251 250 250 252 252 253 254 254 254 256 259 259 259 259 260 260 262 264 266 268 269 270 271 271 272 274 276 277 279 280 282 283 283 284 284 284 284 283 282 282 281
256 254 253 254 255 256 256 258 258 255 254 257 259 259 259 260 262 262 263 264 266 268 270 270 271 271 272 274 276 278 279 280 282 283 284 285 284 285 284 284 284 283 283
257 255 256 257 257 257 259 260 260 258 257 257 260 260 260 262 263 264 265 267 269 270 271 271 272 273 274 276 277 278 280 281 283 284 285 285 285 285 285 284 284 284 283
266 263 261 259 260 259 259 260 261 261 261 261 262 264 265 266 264 266 268 269 271 271 273 275 275 274 277 278 279 281 282 283 284 285 284 284 284 285 285 285 284 284 284
274 268 263 264 264 262 260 261 263 262 263 264 264 265 268 270 269 269 269 269 272 273 275 277 277 277 278 279 281 283 284 285 286 285 285 284 285 286 286 286 285 285 285
284 276 272 271 269 266 267 265 265 265 265 266 266 266 270 273 274 274 273 273 272 274 275 278 279 279 280 281 282 283 285 286 286 286 285 286 286 286 286 287 286 286 286
283 281 276 274 273 271 268 267 268 268 268 269 268 269 273 276 276 277 276 275 274 276 279 281 282 282 282 282 284 285 286 287 287 287 287 287 287 287 287 288 287 287 287
284 281 279 278 275 272 270 269 269 270 272 272 272 273 275 276 278 278 276 276 277 280 281 281 282 283 284 284 285 286 287 288 288 288 287 287 287 288 288 289 288 288 288
284 282 279 277 275 273 273 274 273 273 274 274 274 274 276 278 279 279 278 278 280 282 282 283 284 285 286 286 287 288 289 290 289 288 288 288 289 289 289 290 289 289 289
Height
5894 5895 5896 5897 5898 5898 5899 5900 5900 5901 5901 5901 5901 5902 5902 5902 5903 5903 5903 5903 5903 5902 5902 5902 5902 5901 5901 5901 5900 5901 5901 5901 5901 5901 5901 5901 5900 5900 5900 5900 5899 5899 5899
5892 5894 5895 5896 5897 5898 5899 5899 5900 5901 5901 5901 5901 5902 5902 5902 5902 5903 5903 5902 5902 5902 5902 5902 5901 5901 5900 5900 5900 5900 5900 5900 5900 5900 5899 5899 5899 5899 5899 5898 5898 5898 5897
5891 5892 5894 5895 5896 5897 5898 5899 5900 5900 5901 5901 5902 5902 5902 5902 5902 5902 5902 5902 5902 5902 5902 5901 5901 5900 5900 5899 5899 5899 5899 5899 5899 5899 5898 5898 5898 5898 5897 5897 5897 5896 5896
5889 5891 5892 5894 5895 5896 5897 5898 5899 5900 5900 5901 5901 5901 5902 5902 5902 5902 5902 5902 5902 5901 5901 5901 5900 5900 5899 5899 5898 5898 5898 5898 5898 5898 5897 5897 5896 5896 5896 5896 5895 5895 5894
5887 5889 5891 5893 5894 5895 5895 5897 5898 5899 5899 5900 5901 5901 5901 5901 5902 5902 5902 5901 5901 5901 5901 5900 5900 5900 5899 5899 5898 5898 5898 5897 5897 5896 5896 5896 5895 5895 5895 5894 5894 5893 5893
5886 5888 5889 5891 5892 5893 5894 5896 5897 5898 5898 5899 5900 5900 5901 5901 5901 5901 5901 5901 5901 5901 5900 5900 5900 5899 5899 5899 5898 5898 5897 5897 5896 5895 5895 5894 5894 5894 5893 5893 5892 5891 5891
5884 5886 5888 5890 5891 5892 5893 5894 5896 5897 5897 5898 5899 5899 5900 5900 5900 5901 5901 5900 5900 5900 5900 5900 5899 5899 5899 5898 5898 5897 5897 5896 5895 5895 5894 5893 5893 5892 5892 5891 5891 5890 5889
5882 5884 5886 5888 5889 5891 5892 5893 5894 5895 5896 5897 5898 5898 5899 5900 5899 5900 5900 5900 5899 5899 5899 5899 5898 5898 5898 5898 5897 5897 5896 5895 5894 5893 5893 5892 5891 5891 5890 5890 5889 5888 5888
5880 5882 5884 5886 5887 5889 5890 5891 5892 5893 5894 5895 5896 5897 5897 5897 5898 5899 5899 5899 5898 5898 5898 5898 5897 5897 5896 5896 5896 5895 5895 5894 5893 5892 5891 5890 5890 5889 5888 5888 5887 5886 5885
5878 5879 5881 5883 5885 5886 5888 5889 5890 5891 5892 5893 5894 5895 5895 5896 5896 5897 5897 5897 5897 5897 5897 5896 5896 5895 5895 5894 5894 5893 5892 5891 5891 5890 5889 5888 5887 5886 5886 5885 5884 5883 5882
5875 5877 5879 5880 5882 5884 5885 5887 5888 5889 5890 5890 5891 5892 5893 5893 5894 5894 5895 5895 5895 5895 5895 5894 5893 5893 5892 5892 5891 5890 5890 5889 5888 5887 5886 5885 5884 5883 5882 5881 5880 5880 5878
5873 5874 5876 5878 5879 5881 5882 5884 5885 5886 5887 5887 5888 5889 5890 5890 5891 5891 5892 5892 5892 5892 5892 5891 5891 5890 5889 5889 5888 5887 5886 5886 5885 5884 5883 5882 5881 5880 5878 5877 5876 5875 5874
5870 5871 5873 5875 5876 5878 5879 5880 5881 5882 5883 5884 5885 5885 5886 5887 5887 5888 5888 5888 5889 5889 5889 5888 5888 5887 5886 5885 5884 5883 5882 5881 5881 5880 5879 5877 5876 5875 5874 5872 5871 5870 5868
5868 5869 5870 5872 5873 5874 5876 5877 5878 5879 5879 5880 5881 5881 5882 5883 5884 5884 5884 5885 5885 5885 5885 5884 5883 5883 5882 5881 5880 5879 5878 5876 5876 5875 5874 5873 5871 5870 5868 5867 5865 5864 5862
5865 5866 5867 5869 5870 5871 5872 5873 5874 5874 5875 5876 5877 5877 5878 5879 5879 5880 5880 5880 5880 5880 5880 5880 5879 5878 5877 5876 5875 5874 5873 5871 5870 5869 5868 5867 5865 5863 5862 5860 5858 5856 5855
5862 5863 5864 5865 5866 5867 5867 5868 5869 5870 5870 5871 5872 5872 5873 5874 5874 5874 5875 5875 5875 5875 5874 5874 5873 5873 5872 5871 5869 5868 5867 5865 5864 5863 5861 5860 5858 5856 5854 5852 5850 5848 5846
5858 5859 5860 5861 5862 5862 5863 5863 5864 5865 5865 5866 5866 5867 5867 5868 5869 5869 5869 5869 5869 5869 5869 5868 5867 5866 5866 5864 5863 5862 5860 5859 5857 5856 5854 5852 5850 5848 5845 5843 5841 5839 5837
5855 5855 5856 5857 5857 5858 5858 5858 5859 5859 5860 5860 5861 5861 5862 5862 5863 5863 5863 5863 5863 5863 5862 5862 5861 5860 5859 5857 5856 5855 5853 5851 5850 5848 5846 5843 5841 5838 5836 5833 5831 5829 5826
5851 5851 5852 5852 5853 5853 5854 5854 5854 5854 5854 5855 5855 5856 5856 5856 5857 5857 5857 5856 5856 5856 5856 5855 5854 5853 5851 5850 5849 5847 5845 5843 5841 5839 5837 5834 5832 5829 5826 5823 5820 5818 5815
5847 5847 5848 5848 5848 5849 5849 5849 5849 5849 5849 5850 5850 5850 5850 5850 5851 5850 5850 5850 5850 5849 5848 5847 5846 5845 5844 5842 5840 5839 5837 5834 5832 5829 5827 5824 5821 5818 5815 5812 5809 5806 5803
5844 5844 5844 5844 5844 5844 5844 5844 5844 5845 5845 5845 5845 5845 5844 5844 5844 5844 5844 5843 5843 5842 5841 5840 5838 5837 5836 5834 5832 5830 5827 5824 5822 5819 5816 5813 5810 5807 5803 5800 5796 5793 5789
5840 5840 5839 5840 5840 5840 5840 5839 5839 5839 5839 5839 5839 5839 5838 5838 5838 5837 5836 5836 5835 5835 5833 5832 5831 5829 5827 5825 5823 5820 5818 5815 5812 5809 5805 5802 5798 5794 5791 5787 5783 5779 5775
5837 5836 5836 5835 5835 5835 5835 5834 5834 5834 5834 5833 5833 5833 5832 5832 5831 5830 5829 5828 5828 5827 5826 5824 5822 5820 5818 5816 5813 5810 5807 5804 5801 5797 5793 5789 5785 5781 5777 5773 5769 5764 5760
5834 5833 5832 5831 5831 5830 5830 5829 5828 5828 5828 5827 5827 5826 5826 5825 5824 5823 5822 5821 5820 5818 5817 5815 5813 5811 5808 5806 5803 5800 5797 5793 5789 5785 5781 5777 5772 5767 5763 5758 5754 5749 5745
5829 5828 5827 5826 5826 5825 5824 5824 5823 5822 5821 5821 5820 5820 5819 5818 5817 5816 5815 5813 5812 5810 5808 5806 5804 5801 5798 5795 5792 5789 5785 5781 5777 5773 5768 5764 5759 5754 5749 5744 5738 5734 5728
5824 5823 5823 5822 5821 5820 5819 5818 5817 5817 5816 5814 5814 5813 5812 5811 5810 5808 5807 5805 5803 5801 5799 5796 5794 5791 5788 5784 5781 5777 5773 5769 5764 5759 5754 5750 5745 5740 5735 5729 5723 5717 5712